| time (UTC) | temp F | wind direction | speed knots | gust knots | rain 1hr in | rain 24hr in | rain mn in | humidity % | barometer mb |
| 20260507120614 | 47 | 158 | 0.0 | 0.0 | 0.00 | 0.00 | 0.00 | 90 | 1028.0 |
| 20260507120114 | 47 | 135 | 0.0 | 0.0 | 0.00 | 0.00 | 0.00 | 91 | 1028.0 |
| 20260507115614 | 47 | 90 | 0.0 | 0.0 | 0.00 | 0.00 | 0.00 | 90 | 1027.0 |
| 20260507115116 | 47 | 23 | 0.0 | 0.0 | 0.00 | 0.00 | 0.00 | 90 | 1028.0 |
| 20260507114614 | 47 | 113 | 0.0 | 0.0 | 0.00 | 0.00 | 0.00 | 90 | 1028.0 |
| 20260507114115 | 47 | 113 | 0.0 | 0.0 | 0.00 | 0.00 | 0.00 | 90 | 1028.0 |
| 20260507113615 | 47 | 113 | 0.0 | 0.0 | 0.00 | 0.00 | 0.00 | 89 | 1028.0 |
| 20260507112628 | 48 | 203 | 0.0 | 0.0 | 0.00 | 0.00 | 0.00 | 89 | 1028.0 |
| 20260507112115 | 48 | 203 | 0.0 | 0.0 | 0.00 | 0.00 | 0.00 | 89 | 1028.0 |
| 20260507111614 | 48 | 158 | 0.0 | 0.0 | 0.00 | 0.00 | 0.00 | 89 | 1028.0 |
| 20260507111114 | 48 | 225 | 0.0 | 0.0 | 0.00 | 0.00 | 0.00 | 89 | 1028.0 |
| 20260507110614 | 48 | 68 | 0.0 | 0.0 | 0.00 | 0.00 | 0.00 | 89 | 1028.0 |
| 20260507110115 | 48 | 203 | 0.0 | 0.0 | 0.00 | 0.00 | 0.00 | 89 | 1028.0 |
| 20260507105614 | 48 | 225 | 0.0 | 0.0 | 0.00 | 0.00 | 0.00 | 89 | 1028.0 |
| 20260507105114 | 48 | 158 | 0.0 | 0.0 | 0.00 | 0.00 | 0.00 | 89 | 1028.0 |
| 20260507104615 | 48 | 113 | 0.0 | 0.0 | 0.00 | 0.00 | 0.00 | 89 | 1028.0 |
| 20260507104116 | 48 | 180 | 0.0 | 0.0 | 0.00 | 0.00 | 0.00 | 88 | 1028.0 |
| 20260507103615 | 48 | 158 | 0.0 | 0.0 | 0.00 | 0.00 | 0.00 | 88 | 1028.0 |
| 20260507103115 | 49 | 135 | 0.0 | 0.0 | 0.00 | 0.00 | 0.00 | 87 | 1028.0 |
| 20260507102615 | 49 | 90 | 0.0 | 0.0 | 0.00 | 0.00 | 0.00 | 86 | 1028.0 |
| 20260507102115 | 49 | 113 | 0.0 | 0.0 | 0.00 | 0.00 | 0.00 | 87 | 1028.0 |
| 20260507101614 | 49 | 90 | 0.0 | 0.0 | 0.00 | 0.00 | 0.00 | 86 | 1028.0 |
| 20260507101117 | 49 | 90 | 0.0 | 0.0 | 0.00 | 0.00 | 0.00 | 86 | 1028.0 |
| 20260507100615 | 49 | 293 | 0.0 | 0.0 | 0.00 | 0.00 | 0.00 | 86 | 1028.0 |
| 20260507100122 | 49 | 113 | 0.0 | 0.0 | 0.00 | 0.00 | 0.00 | 86 | 1028.0 |
| 20260507095614 | 49 | 90 | 0.0 | 0.0 | 0.00 | 0.00 | 0.00 | 85 | 1028.0 |
| 20260507095114 | 49 | 158 | 0.0 | 0.0 | 0.00 | 0.00 | 0.00 | 85 | 1028.0 |
| 20260507094615 | 49 | 113 | 0.0 | 0.0 | 0.00 | 0.00 | 0.00 | 85 | 1028.0 |
| 20260507094116 | 49 | 45 | 0.0 | 0.0 | 0.00 | 0.00 | 0.00 | 85 | 1028.0 |
| 20260507093614 | 50 | 68 | 0.0 | 0.0 | 0.00 | 0.00 | 0.00 | 84 | 1028.0 |
| 20260507093115 | 50 | 270 | 0.0 | 0.0 | 0.00 | 0.00 | 0.00 | 84 | 1028.0 |
| 20260507092614 | 50 | 225 | 0.0 | 0.0 | 0.00 | 0.00 | 0.00 | 84 | 1028.0 |
| 20260507092115 | 50 | 293 | 0.9 | 1.7 | 0.00 | 0.00 | 0.00 | 84 | 1028.0 |
| 20260507091615 | 50 | 248 | 0.9 | 1.7 | 0.00 | 0.00 | 0.00 | 84 | 1028.0 |
| 20260507091115 | 50 | 293 | 0.9 | 1.7 | 0.00 | 0.00 | 0.00 | 83 | 1028.0 |
| 20260507090615 | 50 | 248 | 0.0 | 0.0 | 0.00 | 0.00 | 0.00 | 83 | 1029.0 |
| 20260507090115 | 50 | 270 | 1.7 | 2.6 | 0.00 | 0.00 | 0.00 | 83 | 1028.0 |
| 20260507085614 | 50 | 293 | 1.7 | 1.7 | 0.00 | 0.00 | 0.00 | 83 | 1029.0 |
| 20260507085115 | 50 | 293 | 0.0 | 0.9 | 0.00 | 0.00 | 0.00 | 83 | 1028.0 |
| 20260507084615 | 50 | 248 | 0.9 | 1.7 | 0.00 | 0.00 | 0.00 | 83 | 1029.0 |
| 20260507084114 | 50 | 270 | 0.9 | 0.9 | 0.00 | 0.00 | 0.00 | 84 | 1029.0 |
| 20260507083127 | 50 | 270 | 1.7 | 1.7 | 0.00 | 0.00 | 0.00 | 84 | 1029.0 |
| 20260507082615 | 50 | 293 | 0.0 | 0.0 | 0.00 | 0.00 | 0.00 | 84 | 1029.0 |
| 20260507082114 | 50 | 248 | 1.7 | 2.6 | 0.00 | 0.00 | 0.00 | 84 | 1029.0 |
| 20260507081615 | 50 | 248 | 2.6 | 3.5 | 0.00 | 0.00 | 0.00 | 83 | 1029.0 |
| 20260507081115 | 50 | 248 | 0.9 | 1.7 | 0.00 | 0.00 | 0.00 | 83 | 1028.0 |
| 20260507080614 | 50 | 270 | 0.9 | 1.7 | 0.00 | 0.00 | 0.00 | 83 | 1028.0 |
| 20260507080115 | 51 | 293 | 0.9 | 1.7 | 0.00 | 0.00 | 0.00 | 83 | 1029.0 |
| 20260507075614 | 51 | 293 | 1.7 | 1.7 | 0.00 | 0.00 | 0.00 | 83 | 1029.0 |
| 20260507075116 | 51 | 225 | 0.0 | 0.0 | 0.00 | 0.00 | 0.00 | 83 | 1029.0 |
| 20260507074615 | 51 | 0 | 0.0 | 0.9 | 0.00 | 0.00 | 0.00 | 83 | 1029.0 |
| 20260507074115 | 51 | 248 | 2.6 | 3.5 | 0.00 | 0.00 | 0.00 | 82 | 1029.0 |
| 20260507073614 | 51 | 270 | 0.9 | 1.7 | 0.00 | 0.00 | 0.00 | 82 | 1029.0 |
| 20260507073115 | 51 | 248 | 0.0 | 0.9 | 0.00 | 0.00 | 0.00 | 82 | 1029.0 |
| 20260507072616 | 51 | 270 | 1.7 | 2.6 | 0.00 | 0.00 | 0.00 | 82 | 1029.0 |
| 20260507072114 | 51 | 293 | 2.6 | 3.5 | 0.00 | 0.00 | 0.00 | 82 | 1029.0 |
| 20260507071615 | 51 | 158 | 0.9 | 1.7 | 0.00 | 0.00 | 0.00 | 82 | 1029.0 |
| 20260507071115 | 52 | 293 | 0.9 | 1.7 | 0.00 | 0.00 | 0.00 | 82 | 1028.0 |
| 20260507070616 | 52 | 225 | 0.0 | 0.9 | 0.00 | 0.00 | 0.00 | 82 | 1029.0 |
| 20260507070116 | 52 | 248 | 0.0 | 0.0 | 0.00 | 0.00 | 0.00 | 83 | 1029.0 |
| 20260507065614 | 52 | 270 | 0.0 | 0.0 | 0.00 | 0.00 | 0.00 | 83 | 1029.0 |
| 20260507065115 | 52 | 225 | 0.0 | 0.9 | 0.00 | 0.00 | 0.00 | 83 | 1029.0 |
| 20260507064615 | 52 | 293 | 0.9 | 0.9 | 0.00 | 0.00 | 0.00 | 82 | 1029.0 |
| 20260507064115 | 52 | 270 | 1.7 | 1.7 | 0.00 | 0.00 | 0.00 | 83 | 1029.0 |
| 20260507063614 | 52 | 248 | 2.6 | 4.3 | 0.00 | 0.00 | 0.00 | 83 | 1029.0 |
| 20260507063114 | 52 | 270 | 1.7 | 2.6 | 0.00 | 0.00 | 0.00 | 84 | 1029.0 |
| 20260507062615 | 52 | 270 | 1.7 | 1.7 | 0.00 | 0.00 | 0.00 | 84 | 1028.0 |
| 20260507062115 | 52 | 270 | 2.6 | 3.5 | 0.00 | 0.00 | 0.00 | 83 | 1028.0 |
| 20260507061615 | 52 | 338 | 1.7 | 2.6 | 0.00 | 0.00 | 0.00 | 83 | 1029.0 |
| 20260507061114 | 53 | 248 | 0.0 | 0.9 | 0.00 | 0.00 | 0.00 | 84 | 1029.0 |
| 20260507060614 | 53 | 203 | 0.0 | 1.7 | 0.00 | 0.00 | 0.00 | 84 | 1028.0 |
| 20260507060114 | 53 | 90 | 0.0 | 0.0 | 0.00 | 0.00 | 0.00 | 84 | 1029.0 |
| 20260507055614 | 53 | 315 | 0.0 | 0.9 | 0.00 | 0.00 | 0.00 | 84 | 1028.0 |
| 20260507055115 | 53 | 293 | 1.7 | 1.7 | 0.00 | 0.00 | 0.00 | 84 | 1029.0 |
| 20260507054615 | 53 | 293 | 0.0 | 0.9 | 0.00 | 0.00 | 0.00 | 84 | 1029.0 |
| 20260507054115 | 53 | 248 | 0.9 | 1.7 | 0.00 | 0.00 | 0.00 | 83 | 1028.0 |
| 20260507053614 | 53 | 270 | 0.0 | 0.9 | 0.00 | 0.00 | 0.00 | 83 | 1029.0 |
| 20260507053115 | 53 | 293 | 0.0 | 0.0 | 0.00 | 0.00 | 0.00 | 83 | 1029.0 |
| 20260507052614 | 53 | 270 | 0.9 | 1.7 | 0.00 | 0.00 | 0.00 | 83 | 1029.0 |
| 20260507052114 | 53 | 135 | 0.0 | 0.0 | 0.00 | 0.00 | 0.00 | 82 | 1029.0 |
| 20260507051615 | 53 | 158 | 0.0 | 0.9 | 0.00 | 0.00 | 0.00 | 83 | 1029.0 |
| 20260507051115 | 53 | 270 | 0.9 | 1.7 | 0.00 | 0.00 | 0.00 | 82 | 1029.0 |
| 20260507050615 | 53 | 270 | 1.7 | 1.7 | 0.00 | 0.00 | 0.00 | 82 | 1029.0 |
| 20260507050114 | 53 | 270 | 2.6 | 3.5 | 0.00 | 0.00 | 0.00 | 82 | 1029.0 |
| 20260507045616 | 53 | 293 | 2.6 | 3.5 | 0.00 | 0.00 | 0.00 | 82 | 1029.0 |
| 20260507045115 | 53 | 293 | 0.9 | 1.7 | 0.00 | 0.00 | 0.00 | 82 | 1029.0 |
| 20260507044614 | 53 | 180 | 1.7 | 1.7 | 0.00 | 0.00 | 0.00 | 82 | 1029.0 |
| 20260507044114 | 54 | 270 | 2.6 | 3.5 | 0.00 | 0.00 | 0.00 | 83 | 1029.0 |
| 20260507043615 | 54 | 248 | 1.7 | 3.5 | 0.00 | 0.00 | 0.00 | 83 | 1029.0 |
| 20260507043116 | 54 | 248 | 1.7 | 1.7 | 0.00 | 0.00 | 0.00 | 83 | 1029.0 |
| 20260507042614 | 54 | 225 | 0.9 | 1.7 | 0.00 | 0.00 | 0.00 | 83 | 1029.0 |
| 20260507042115 | 54 | 248 | 3.5 | 3.5 | 0.00 | 0.00 | 0.00 | 82 | 1029.0 |
| 20260507041614 | 54 | 248 | 1.7 | 2.6 | 0.00 | 0.00 | 0.00 | 83 | 1029.0 |
| 20260507041114 | 54 | 248 | 2.6 | 3.5 | 0.00 | 0.00 | 0.00 | 83 | 1029.0 |
| 20260507040615 | 54 | 270 | 1.7 | 1.7 | 0.00 | 0.00 | 0.00 | 83 | 1029.0 |
| 20260507040115 | 54 | 248 | 0.9 | 1.7 | 0.00 | 0.00 | 0.00 | 83 | 1029.0 |
| 20260507035615 | 54 | 270 | 1.7 | 1.7 | 0.00 | 0.00 | 0.00 | 82 | 1028.0 |
| 20260507035116 | 55 | 248 | 0.0 | 0.9 | 0.00 | 0.00 | 0.00 | 82 | 1029.0 |
| 20260507034614 | 55 | 248 | 0.9 | 1.7 | 0.00 | 0.00 | 0.00 | 82 | 1028.0 |
| 20260507034114 | 55 | 248 | 1.7 | 1.7 | 0.00 | 0.00 | 0.00 | 82 | 1029.0 |
| 20260507033614 | 55 | 225 | 0.0 | 1.7 | 0.00 | 0.00 | 0.00 | 81 | 1028.0 |
| 20260507033116 | 55 | 225 | 1.7 | 1.7 | 0.00 | 0.00 | 0.00 | 81 | 1028.0 |
| 20260507032615 | 55 | 315 | 2.6 | 3.5 | 0.00 | 0.00 | 0.00 | 81 | 1028.0 |
| 20260507032115 | 55 | 293 | 1.7 | 1.7 | 0.00 | 0.00 | 0.00 | 81 | 1028.0 |
| 20260507031615 | 55 | 270 | 1.7 | 1.7 | 0.00 | 0.00 | 0.00 | 80 | 1028.0 |
| 20260507031114 | 55 | 270 | 1.7 | 2.6 | 0.00 | 0.00 | 0.00 | 80 | 1028.0 |
| 20260507030614 | 55 | 270 | 2.6 | 4.3 | 0.00 | 0.00 | 0.00 | 80 | 1028.0 |
| 20260507030115 | 55 | 248 | 2.6 | 4.3 | 0.00 | 0.00 | 0.00 | 80 | 1028.0 |
| 20260507025614 | 56 | 293 | 2.6 | 3.5 | 0.00 | 0.00 | 0.00 | 79 | 1028.0 |
| 20260507025114 | 56 | 293 | 3.5 | 4.3 | 0.00 | 0.00 | 0.00 | 79 | 1028.0 |
| 20260507024614 | 56 | 338 | 2.6 | 3.5 | 0.00 | 0.00 | 0.00 | 79 | 1028.0 |
| 20260507024115 | 56 | 293 | 0.9 | 1.7 | 0.00 | 0.00 | 0.00 | 78 | 1028.0 |
| 20260507023614 | 57 | 315 | 3.5 | 4.3 | 0.00 | 0.00 | 0.00 | 78 | 1028.0 |
| 20260507023114 | 57 | 248 | 0.0 | 0.9 | 0.00 | 0.00 | 0.00 | 78 | 1028.0 |
| 20260507022614 | 57 | 270 | 1.7 | 1.7 | 0.00 | 0.00 | 0.00 | 79 | 1028.0 |
| 20260507022115 | 57 | 248 | 4.3 | 6.1 | 0.00 | 0.00 | 0.00 | 78 | 1028.0 |
| 20260507021615 | 58 | 293 | 1.7 | 4.3 | 0.00 | 0.00 | 0.00 | 78 | 1028.0 |
| 20260507021115 | 58 | 293 | 1.7 | 1.7 | 0.00 | 0.00 | 0.00 | 78 | 1028.0 |
| 20260507020614 | 58 | 158 | 3.5 | 4.3 | 0.00 | 0.00 | 0.00 | 78 | 1028.0 |
| 20260507020115 | 58 | 203 | 2.6 | 4.3 | 0.00 | 0.00 | 0.00 | 78 | 1028.0 |
| 20260507015614 | 58 | 315 | 2.6 | 3.5 | 0.00 | 0.00 | 0.00 | 77 | 1028.0 |
| 20260507015115 | 59 | 293 | 1.7 | 2.6 | 0.00 | 0.00 | 0.00 | 78 | 1028.0 |
| 20260507014615 | 59 | 293 | 6.1 | 6.1 | 0.00 | 0.00 | 0.00 | 76 | 1028.0 |
| 20260507014115 | 59 | 270 | 3.5 | 4.3 | 0.00 | 0.00 | 0.00 | 76 | 1028.0 |
| 20260507013615 | 60 | 293 | 0.9 | 1.7 | 0.00 | 0.00 | 0.00 | 76 | 1028.0 |
| 20260507013115 | 60 | 293 | 2.6 | 2.6 | 0.00 | 0.00 | 0.00 | 75 | 1028.0 |
| 20260507012615 | 60 | 293 | 1.7 | 2.6 | 0.00 | 0.00 | 0.00 | 74 | 1028.0 |
| 20260507012115 | 60 | 270 | 1.7 | 1.7 | 0.00 | 0.00 | 0.00 | 74 | 1028.0 |
| 20260507011615 | 60 | 315 | 2.6 | 4.3 | 0.00 | 0.00 | 0.00 | 72 | 1028.0 |
| 20260507011114 | 61 | 315 | 2.6 | 3.5 | 0.00 | 0.00 | 0.00 | 73 | 1028.0 |
| 20260507010615 | 61 | 248 | 2.6 | 4.3 | 0.00 | 0.00 | 0.00 | 72 | 1028.0 |
| 20260507010114 | 61 | 158 | 0.9 | 1.7 | 0.00 | 0.00 | 0.00 | 72 | 1028.0 |
| 20260507005614 | 61 | 270 | 2.6 | 3.5 | 0.00 | 0.00 | 0.00 | 71 | 1028.0 |
| 20260507005114 | 61 | 293 | 2.6 | 4.3 | 0.00 | 0.00 | 0.00 | 72 | 1028.0 |
| 20260507004615 | 61 | 270 | 2.6 | 2.6 | 0.00 | 0.00 | 0.00 | 70 | 1028.0 |
| 20260507004114 | 62 | 45 | 1.7 | 1.7 | 0.00 | 0.00 | 0.00 | 69 | 1028.0 |
| 20260507003615 | 61 | 225 | 0.0 | 1.7 | 0.00 | 0.00 | 0.00 | 71 | 1028.0 |
| 20260507003115 | 61 | 270 | 3.5 | 4.3 | 0.00 | 0.00 | 0.00 | 69 | 1028.0 |
| 20260507002615 | 62 | 293 | 1.7 | 1.7 | 0.00 | 0.00 | 0.00 | 70 | 1028.0 |
| 20260507002115 | 62 | 293 | 2.6 | 4.3 | 0.00 | 0.00 | 0.00 | 68 | 1028.0 |
| 20260507001614 | 63 | 315 | 1.7 | 2.6 | 0.00 | 0.00 | 0.00 | 66 | 1028.0 |
| 20260507001115 | 64 | 248 | 3.5 | 3.5 | 0.00 | 0.00 | 0.00 | 66 | 1028.0 |
| 20260506184115 | 55 | 45 | 0.0 | 0.9 | 0.00 | 0.00 | 0.00 | 88 | 1028.0 |
| 20260506183615 | 55 | 293 | 2.6 | 2.6 | 0.00 | 0.00 | 0.00 | 88 | 1028.0 |
| 20260506183115 | 55 | 270 | 1.7 | 2.6 | 0.00 | 0.00 | 0.00 | 88 | 1028.0 |
| 20260506182615 | 55 | 315 | 4.3 | 4.3 | 0.00 | 0.00 | 0.00 | 88 | 1028.0 |
| 20260506182114 | 56 | 225 | 0.9 | 1.7 | 0.00 | 0.00 | 0.00 | 87 | 1028.0 |
| 20260506181615 | 55 | 45 | 0.0 | 0.0 | 0.00 | 0.00 | 0.00 | 88 | 1028.0 |
| 20260506181114 | 55 | 315 | 0.0 | 0.9 | 0.00 | 0.00 | 0.00 | 88 | 1028.0 |
| 20260506180615 | 55 | 225 | 1.7 | 2.6 | 0.00 | 0.00 | 0.00 | 89 | 1028.0 |
| 20260506180115 | 55 | 248 | 2.6 | 3.5 | 0.00 | 0.00 | 0.00 | 89 | 1028.0 |
| 20260506175615 | 55 | 248 | 0.0 | 1.7 | 0.00 | 0.00 | 0.00 | 89 | 1028.0 |
| 20260506175115 | 55 | 293 | 1.7 | 2.6 | 0.00 | 0.00 | 0.00 | 88 | 1028.0 |
| 20260506174614 | 55 | 158 | 0.0 | 0.9 | 0.00 | 0.00 | 0.00 | 88 | 1028.0 |
| 20260506174115 | 55 | 315 | 0.9 | 1.7 | 0.00 | 0.00 | 0.00 | 89 | 1028.0 |
| 20260506173615 | 55 | 338 | 0.0 | 0.9 | 0.00 | 0.00 | 0.00 | 89 | 1028.0 |
| 20260506173115 | 55 | 23 | 1.7 | 1.7 | 0.00 | 0.00 | 0.00 | 89 | 1028.0 |
| 20260506172615 | 55 | 270 | 1.7 | 1.7 | 0.00 | 0.00 | 0.00 | 89 | 1028.0 |
| 20260506172115 | 55 | 338 | 0.9 | 1.7 | 0.00 | 0.00 | 0.00 | 90 | 1028.0 |
| 20260506171615 | 54 | 23 | 0.0 | 0.9 | 0.00 | 0.00 | 0.00 | 90 | 1028.0 |
| 20260506171114 | 54 | 45 | 0.0 | 0.9 | 0.00 | 0.00 | 0.00 | 91 | 1028.0 |
| 20260506170615 | 54 | 203 | 0.0 | 0.9 | 0.00 | 0.00 | 0.00 | 91 | 1028.0 |
| 20260506170115 | 54 | 293 | 1.7 | 1.7 | 0.00 | 0.00 | 0.00 | 91 | 1028.0 |
| 20260506165614 | 54 | 270 | 1.7 | 1.7 | 0.00 | 0.00 | 0.00 | 91 | 1028.0 |
| 20260506165115 | 54 | 158 | 0.0 | 0.0 | 0.00 | 0.00 | 0.00 | 91 | 1028.0 |
| 20260506164615 | 54 | 293 | 0.9 | 0.9 | 0.00 | 0.00 | 0.00 | 91 | 1028.0 |
| 20260506164114 | 53 | 113 | 0.0 | 0.0 | 0.00 | 0.00 | 0.00 | 92 | 1028.0 |
| 20260506163615 | 53 | 225 | 1.7 | 1.7 | 0.00 | 0.00 | 0.00 | 92 | 1028.0 |
| 20260506163114 | 53 | 248 | 0.9 | 1.7 | 0.00 | 0.00 | 0.00 | 92 | 1028.0 |
| 20260506162614 | 53 | 68 | 0.9 | 1.7 | 0.00 | 0.00 | 0.00 | 92 | 1028.0 |
| 20260506162115 | 53 | 45 | 0.9 | 1.7 | 0.00 | 0.00 | 0.00 | 91 | 1028.0 |
| 20260506161615 | 53 | 45 | 0.9 | 1.7 | 0.00 | 0.00 | 0.00 | 92 | 1028.0 |
| 20260506161115 | 53 | 23 | 0.9 | 1.7 | 0.00 | 0.00 | 0.00 | 92 | 1028.0 |
| 20260506160615 | 53 | 113 | 0.0 | 0.0 | 0.00 | 0.00 | 0.00 | 92 | 1028.0 |
| 20260506160115 | 53 | 68 | 0.9 | 1.7 | 0.00 | 0.00 | 0.00 | 93 | 1028.0 |
| 20260506155615 | 53 | 113 | 0.0 | 0.0 | 0.00 | 0.00 | 0.00 | 93 | 1028.0 |
| 20260506155115 | 52 | 0 | 0.9 | 1.7 | 0.00 | 0.00 | 0.00 | 93 | 1028.0 |
| 20260506154615 | 52 | 293 | 0.9 | 1.7 | 0.00 | 0.00 | 0.00 | 94 | 1028.0 |
| 20260506154116 | 52 | 315 | 0.0 | 0.9 | 0.00 | 0.00 | 0.00 | 95 | 1028.0 |
| 20260506153615 | 52 | 338 | 0.9 | 1.7 | 0.00 | 0.00 | 0.00 | 95 | 1028.0 |
| 20260506153115 | 52 | 23 | 0.0 | 0.0 | 0.00 | 0.00 | 0.00 | 96 | 1028.0 |
| 20260506152615 | 52 | 293 | 1.7 | 1.7 | 0.00 | 0.00 | 0.00 | 96 | 1028.0 |
| 20260506152114 | 53 | 225 | 0.0 | 0.0 | 0.00 | 0.00 | 0.00 | 96 | 1027.0 |
| 20260506151615 | 52 | 293 | 1.7 | 1.7 | 0.00 | 0.00 | 0.00 | 95 | 1028.0 |
| 20260506151114 | 52 | 135 | 0.0 | 0.0 | 0.00 | 0.00 | 0.00 | 95 | 1027.0 |
| 20260506150615 | 52 | 135 | 0.0 | 0.0 | 0.00 | 0.00 | 0.00 | 96 | 1027.0 |
| 20260506150116 | 52 | 90 | 0.9 | 1.7 | 0.00 | 0.00 | 0.00 | 97 | 1027.0 |
| 20260506145615 | 52 | 90 | 0.0 | 0.9 | 0.00 | 0.00 | 0.00 | 97 | 1027.0 |
| 20260506145115 | 52 | 158 | 0.0 | 0.0 | 0.00 | 0.00 | 0.00 | 97 | 1027.0 |
| 20260506144615 | 52 | 90 | 0.0 | 0.9 | 0.00 | 0.00 | 0.00 | 97 | 1027.0 |
| 20260506144114 | 52 | 158 | 0.0 | 0.0 | 0.00 | 0.00 | 0.00 | 97 | 1027.0 |
| 20260506143617 | 52 | 113 | 0.0 | 0.0 | 0.00 | 0.00 | 0.00 | 97 | 1027.0 |
| 20260506143115 | 52 | 113 | 0.0 | 0.0 | 0.00 | 0.00 | 0.00 | 97 | 1028.0 |
| 20260506142616 | 52 | 0 | 0.0 | 0.0 | 0.00 | 0.00 | 0.00 | 97 | 1027.0 |
| 20260506142115 | 52 | 180 | 0.0 | 0.0 | 0.00 | 0.00 | 0.00 | 96 | 1028.0 |
| 20260506141615 | 52 | 113 | 0.0 | 0.0 | 0.00 | 0.00 | 0.00 | 97 | 1028.0 |
| 20260506141115 | 52 | 113 | 0.0 | 0.9 | 0.00 | 0.00 | 0.00 | 96 | 1028.0 |
| 20260506140615 | 52 | 45 | 0.9 | 1.7 | 0.00 | 0.00 | 0.00 | 96 | 1027.0 |
| 20260506140116 | 52 | 68 | 0.0 | 0.0 | 0.00 | 0.00 | 0.00 | 96 | 1027.0 |
| 20260506135614 | 52 | 68 | 0.0 | 0.9 | 0.00 | 0.00 | 0.00 | 96 | 1027.0 |
| 20260506135115 | 52 | 0 | 0.0 | 0.0 | 0.00 | 0.00 | 0.00 | 96 | 1027.0 |
| 20260506134616 | 52 | 248 | 0.9 | 1.7 | 0.00 | 0.00 | 0.00 | 96 | 1027.0 |
| 20260506134115 | 52 | 293 | 0.9 | 0.9 | 0.00 | 0.00 | 0.00 | 96 | 1027.0 |
| 20260506133615 | 52 | 135 | 0.0 | 0.0 | 0.00 | 0.00 | 0.00 | 96 | 1027.0 |
| 20260506133115 | 52 | 113 | 0.0 | 0.0 | 0.00 | 0.00 | 0.00 | 96 | 1027.0 |
| 20260506132614 | 52 | 68 | 0.0 | 0.0 | 0.00 | 0.00 | 0.00 | 96 | 1027.0 |
| 20260506132116 | 52 | 135 | 0.0 | 0.0 | 0.00 | 0.00 | 0.00 | 96 | 1027.0 |
| 20260506131615 | 52 | 270 | 0.0 | 0.0 | 0.00 | 0.00 | 0.00 | 96 | 1027.0 |
| 20260506131115 | 52 | 293 | 0.0 | 0.9 | 0.00 | 0.00 | 0.00 | 95 | 1027.0 |
| 20260506130616 | 52 | 203 | 0.0 | 0.0 | 0.00 | 0.00 | 0.00 | 96 | 1027.0 |
| 20260506130116 | 52 | 293 | 0.0 | 0.0 | 0.00 | 0.00 | 0.00 | 96 | 1027.0 |
| 20260506125614 | 52 | 90 | 0.0 | 0.0 | 0.00 | 0.00 | 0.00 | 96 | 1027.0 |
| 20260506125114 | 52 | 90 | 0.0 | 0.0 | 0.00 | 0.00 | 0.00 | 96 | 1027.0 |
| 20260506124614 | 52 | 90 | 0.0 | 0.0 | 0.00 | 0.00 | 0.00 | 96 | 1027.0 |
| 20260506124115 | 52 | 23 | 0.0 | 0.0 | 0.00 | 0.00 | 0.00 | 96 | 1027.0 |
| 20260506123615 | 52 | 68 | 0.0 | 0.0 | 0.00 | 0.00 | 0.00 | 96 | 1027.0 |
| 20260506123115 | 52 | 113 | 0.0 | 0.0 | 0.00 | 0.00 | 0.00 | 96 | 1027.0 |
| 20260506122614 | 52 | 113 | 0.0 | 0.0 | 0.00 | 0.00 | 0.00 | 96 | 1026.0 |
| 20260506122115 | 52 | 248 | 0.9 | 0.9 | 0.00 | 0.00 | 0.00 | 96 | 1026.0 |
| 20260506121614 | 52 | 158 | 0.0 | 0.0 | 0.00 | 0.00 | 0.00 | 96 | 1026.0 |
| 20260506121114 | 52 | 113 | 0.0 | 0.0 | 0.00 | 0.00 | 0.00 | 96 | 1026.0 |